Blytheville Muni Airport, AR

1:56 PM CDT on May 27, 2018 (GMT -0500)
Blytheville Municipal

Weather History for KHKA - November, 2013

Change the Weather History Date:

Friday, November 29, 2013

  Actual Average Record
Temperature  
Mean Temperature 39 °F -  
Max Temperature 52 °F 52 °F 78 °F (1949)
Min Temperature 26 °F 36 °F 16 °F (1976)
Degree Days  
Heating Degree Days 26    
Moisture  
Dew Point 28 °F    
Average Humidity 70    
Maximum Humidity 92    
Minimum Humidity 41    
Precipitation  
Precipitation 0.00 in - - ()
Sea Level Pressure  
Sea Level Pressure 30.51 in    
Wind  
Wind Speed 3 mph (SE)    
Max Wind Speed 7 mph    
Max Gust Speed -    
Visibility 10 miles    
Events      
Averages and records for this station are not official NWS values.
T = Trace of Precipitation, MM = Missing Value Source: NWS Daily Summary

Daily Weather History Graph

Daily Weather History Graph

Search for Another Location

Airport or City:

Astronomy

Nov. 29, 2013 Rise Set
Actual Time 6:49 AM CST 4:45 PM CST
Civil Twilight 6:21 AM CST 5:13 PM CST
Nautical Twilight 5:50 AM CST 5:45 PM CST
Astronomical Twilight 5:19 AM CST 6:16 PM CST
Moon 3:01 AM CST (11/29) 2:24 PM CST (11/29)
Length of Visible Light 10h 52m
Length of Day
9h 56m
Waning Crescent, 14% of the Moon is Illuminated
Nov 29
Waning Crescent
Dec 2
New
Dec 9
First Quarter
Dec 17
Full
Dec 25
Last Quarter

Hourly Weather History & Observations

Time (CST) Temp. Windchill Dew Point Humidity Pressure Visibility Wind Dir Wind Speed Gust Speed Precip Events Conditions
12:53 AM 30.0 °F 26.5 °F 26.1 °F 85% 30.49 in 10.0 mi South 3.5 mph - N/A   Clear
1:53 AM 30.0 °F - 26.1 °F 85% 30.50 in 10.0 mi Calm Calm - N/A   Clear
2:53 AM 26.1 °F 21.9 °F 24.1 °F 92% 30.51 in 10.0 mi East 3.5 mph - N/A   Clear
3:53 AM 28.0 °F 24.2 °F 24.1 °F 85% 30.53 in 10.0 mi East 3.5 mph - N/A   Clear
4:53 AM 28.9 °F 25.2 °F 25.0 °F 85% 30.54 in 10.0 mi ESE 3.5 mph - N/A   Clear
5:53 AM 28.0 °F 22.8 °F 25.0 °F 88% 30.55 in 10.0 mi SE 4.6 mph - N/A   Clear
6:53 AM 27.0 °F 21.6 °F 24.1 °F 89% 30.56 in 10.0 mi ESE 4.6 mph - N/A   Clear
7:53 AM 30.9 °F - 28.0 °F 89% 30.58 in 10.0 mi Calm Calm - N/A   Clear
8:33 AM 35.6 °F 31.7 °F 28.4 °F 75% 30.57 in 10.0 mi SE 4.6 mph - N/A   Partly Cloudy
8:53 AM 37.0 °F 34.5 °F 30.0 °F 76% 30.58 in 10.0 mi ESE 3.5 mph - N/A   Clear
9:53 AM 41.0 °F 38.0 °F 28.9 °F 62% 30.59 in 10.0 mi East 4.6 mph - N/A   Clear
10:53 AM 45.0 °F 42.6 °F 28.9 °F 53% 30.58 in 10.0 mi SSE 4.6 mph - N/A   Clear
11:53 AM 48.0 °F - 30.0 °F 50% 30.55 in 10.0 mi SSE 6.9 mph - N/A   Clear
12:53 PM 50.0 °F - 30.0 °F 46% 30.53 in 10.0 mi Calm Calm - N/A   Clear
1:53 PM 51.1 °F - 28.9 °F 43% 30.51 in 10.0 mi South 4.6 mph - N/A   Clear
2:53 PM 52.0 °F - 28.9 °F 41% 30.50 in 10.0 mi Variable 3.5 mph - N/A   Clear
3:53 PM 52.0 °F - 28.9 °F 41% 30.49 in 10.0 mi Calm Calm - N/A   Clear
4:53 PM 46.0 °F - 32.0 °F 58% 30.48 in 10.0 mi Calm Calm - N/A   Clear
5:53 PM 42.1 °F 39.2 °F 30.0 °F 62% 30.47 in 10.0 mi East 4.6 mph - N/A   Clear
6:53 PM 39.9 °F 35.1 °F 30.0 °F 68% 30.46 in 10.0 mi ESE 6.9 mph - N/A   Clear
7:53 PM 39.0 °F - 30.0 °F 70% 30.46 in 10.0 mi Calm Calm - N/A   Clear
8:53 PM 39.0 °F 36.8 °F 30.9 °F 73% 30.46 in 10.0 mi SE 3.5 mph - N/A   Clear
9:53 PM 37.0 °F 33.3 °F 30.0 °F 76% 30.46 in 10.0 mi ESE 4.6 mph - N/A   Clear
10:53 PM 34.0 °F 28.8 °F 28.9 °F 82% 30.45 in 10.0 mi SE 5.8 mph - N/A   Clear
11:53 PM 37.0 °F 31.6 °F 28.0 °F 70% 30.44 in 10.0 mi SSE 6.9 mph - N/A   Clear